EW0199 Weather Reports


time (UTC)temp
C
wind
direction
speed
KPH
gust
KPH
rain 1hr
cm
rain 24hr
cm
rain mn
cm
humidity
%
barometer
mb
20260906160841 23 226 0.0 3.2 0.00 0.00 0.00 70 1020.4
20260906160404 23 75 0.0 3.2 0.00 0.00 0.00 70 1020.4
20260906155908 23 305 0.0 4.8 0.00 0.00 0.00 71 1020.3
20260906154846 23 190 0.0 6.4 0.00 0.00 0.00 74 1020.4
20260906154410 23 219 0.0 3.2 0.00 0.00 0.00 76 1020.4
20260906153827 22 226 0.0 3.2 0.00 0.00 0.00 79 1020.4
20260906153350 22 225 0.0 3.2 0.00 0.00 0.00 76 1020.4
20260906152912 22 241 0.0 6.4 0.00 0.00 0.00 80 1020.5
20260906151840 21 241 0.0 4.8 0.00 0.00 0.00 81 1020.4
20260906151403 21 233 0.0 4.8 0.00 0.00 0.00 79 1020.4
20260906150822 21 261 0.0 1.6 0.00 0.00 0.00 83 1020.6
20260906150322 21 261 0.0 3.2 0.00 0.00 0.00 85 1020.6
20260906145333 21 58 0.0 1.6 0.00 0.00 0.00 84 1020.5
20260906144851 21 270 0.0 1.6 0.00 0.00 0.00 85 1020.5
20260906144413 20 271 0.0 1.6 0.00 0.00 0.00 88 1020.4
20260906143934 20 270 0.0 1.6 0.00 0.00 0.00 88 1020.5
20260906143321 20 360 0.0 1.6 0.00 0.00 0.00 88 1020.5
20260906142844 19 269 0.0 0.0 0.00 0.00 0.00 91 1020.5
20260906141842 18 269 0.0 1.6 0.00 0.00 0.00 93 1020.7
20260906141351 17 269 0.0 1.6 0.00 0.00 0.00 96 1020.7
20260906140914 17 269 0.0 0.0 0.00 0.00 0.00 98 1020.8
20260906140416 17 269 0.0 0.0 0.00 0.00 0.00 99 1020.8
20260906135831 17 269 0.0 0.0 0.00 0.00 0.00 99 1020.8
20260906135354 16 269 0.0 0.0 0.00 0.00 0.00 99 1020.8
20260906134853 16 269 0.0 1.6 0.00 0.00 0.00 99 1020.7
20260906134405 16 279 0.0 1.6 0.00 0.00 0.00 99 1020.6
20260906133912 15 279 0.0 1.6 0.00 0.00 0.00 99 1020.5
20260906133325 15 279 0.0 0.0 0.00 0.00 0.00 99 1020.6
20260906132830 14 279 0.0 0.0 0.00 0.00 0.00 99 1020.6
20260906132353 14 279 0.0 0.0 0.00 0.00 0.00 99 1020.5
20260906131916 14 279 0.0 0.0 0.00 0.00 0.00 99 1020.5
20260906131329 13 279 0.0 1.6 0.00 0.00 0.00 99 1020.5
20260906130855 13 279 0.0 1.6 0.00 0.00 0.00 99 1020.5
20260906130401 13 208 0.0 0.0 0.00 0.00 0.00 99 1020.4
20260906125910 13 208 0.0 0.0 0.00 0.00 0.00 99 1020.4
20260906125415 12 208 0.0 0.0 0.00 0.00 0.00 99 1020.3
20260906124901 12 208 0.0 0.0 0.00 0.00 0.00 99 1020.2
20260906124421 12 208 0.0 0.0 0.00 0.00 0.00 99 1020.3
20260906123827 12 208 0.0 0.0 0.00 0.00 0.00 99 1020.3
20260906123349 11 208 0.0 0.0 0.00 0.00 0.00 99 1020.3
20260906122856 11 208 0.0 0.0 0.00 0.00 0.00 98 1020.2
20260906122404 11 208 0.0 0.0 0.00 0.00 0.00 98 1020.2
20260906121912 11 208 0.0 0.0 0.00 0.00 0.00 98 1020.0
20260906121415 11 208 0.0 0.0 0.00 0.00 0.00 98 1020.0
20260906120832 11 208 0.0 0.0 0.00 0.00 0.00 98 1020.0
20260906120355 10 208 0.0 0.0 0.00 0.00 0.00 98 1019.9
20260906115844 10 208 0.0 0.0 0.00 0.00 0.00 98 1019.9
20260906114846 10 208 0.0 0.0 0.00 0.00 0.00 98 1019.9
20260906114410 10 208 0.0 0.0 0.00 0.00 0.00 98 1020.0
20260906113920 10 208 0.0 0.0 0.00 0.00 0.00 98 1019.9
20260906113425 10 208 0.0 0.0 0.00 0.00 0.00 98 1019.8
20260906112830 10 208 0.0 0.0 0.00 0.00 0.00 98 1019.8
20260906112346 10 208 0.0 0.0 0.00 0.00 0.00 98 1019.7
20260906111854 10 208 0.0 0.0 0.00 0.00 0.00 98 1019.6
20260906111343 10 208 0.0 0.0 0.00 0.00 0.00 98 1019.5
20260906110340 10 208 0.0 0.0 0.00 0.00 0.00 98 1019.4
20260906105346 10 208 0.0 0.0 0.00 0.00 0.00 98 1019.4
20260906104327 11 208 0.0 0.0 0.00 0.00 0.00 98 1019.2
20260906103855 11 208 0.0 0.0 0.00 0.00 0.00 98 1019.2
20260906103424 11 208 0.0 0.0 0.00 0.00 0.00 98 1019.2
20260906102918 11 208 0.0 0.0 0.00 0.00 0.00 98 1019.2
20260906102339 11 208 0.0 0.0 0.00 0.00 0.00 98 1019.2
20260906101901 11 208 0.0 0.0 0.00 0.00 0.00 98 1019.3
20260906101403 11 208 0.0 0.0 0.00 0.00 0.00 98 1019.3
20260906100851 11 208 0.0 0.0 0.00 0.00 0.00 98 1019.2
20260906100402 11 208 0.0 0.0 0.00 0.00 0.00 98 1019.1
20260906095911 11 208 0.0 0.0 0.00 0.00 0.00 98 1019.1
20260906095355 11 208 0.0 0.0 0.00 0.00 0.00 98 1019.1
20260906094918 11 208 0.0 0.0 0.00 0.00 0.00 98 1019.1
20260906094342 11 208 0.0 0.0 0.00 0.00 0.00 98 1019.3
20260906093346 11 208 0.0 0.0 0.00 0.00 0.00 98 1019.2
20260906092345 11 208 0.0 0.0 0.00 0.00 0.00 98 1019.2
20260906091345 11 208 0.0 0.0 0.00 0.00 0.00 98 1019.2
20260906090905 11 208 0.0 0.0 0.00 0.00 0.00 98 1019.1
20260906090413 11 208 0.0 0.0 0.00 0.00 0.00 98 1019.2
20260906085836 11 208 0.0 0.0 0.00 0.00 0.00 98 1019.2
20260906085408 11 208 0.0 0.0 0.00 0.00 0.00 98 1019.2
20260906084937 11 208 0.0 0.0 0.00 0.00 0.00 98 1019.2
20260906084336 11 208 0.0 0.0 0.00 0.00 0.00 98 1019.1
20260906083902 11 208 0.0 0.0 0.00 0.00 0.00 98 1019.0
20260906083408 11 208 0.0 0.0 0.00 0.00 0.00 98 1019.1
20260906082915 11 208 0.0 0.0 0.00 0.00 0.00 98 1019.2
20260906082332 12 208 0.0 0.0 0.00 0.00 0.00 98 1019.2
20260906081855 12 208 0.0 0.0 0.00 0.00 0.00 98 1019.1
20260906081404 12 208 0.0 0.0 0.00 0.00 0.00 98 1019.2
20260906080908 12 208 0.0 0.0 0.00 0.00 0.00 98 1019.1
20260906080410 11 208 0.0 0.0 0.00 0.00 0.00 98 1019.1
20260906075855 11 208 0.0 0.0 0.00 0.00 0.00 98 1019.0
20260906075403 12 208 0.0 0.0 0.00 0.00 0.00 98 1018.8
20260906074910 12 208 0.0 0.0 0.00 0.00 0.00 98 1018.7
20260906074337 12 208 0.0 0.0 0.00 0.00 0.00 98 1018.6
20260906073904 12 208 0.0 0.0 0.00 0.00 0.00 98 1018.7
20260906073325 12 208 0.0 0.0 0.00 0.00 0.00 98 1018.8
20260906072849 12 208 0.0 0.0 0.00 0.00 0.00 98 1018.7
20260906072414 12 208 0.0 0.0 0.00 0.00 0.00 98 1018.7
20260906071837 12 208 0.0 0.0 0.00 0.00 0.00 98 1018.8
20260906071406 12 208 0.0 0.0 0.00 0.00 0.00 98 1018.7
20260906070824 12 208 0.0 0.0 0.00 0.00 0.00 98 1018.7
20260906070352 12 208 0.0 0.0 0.00 0.00 0.00 98 1018.8
20260906065827 12 208 0.0 0.0 0.00 0.00 0.00 98 1018.9
20260906065333 12 208 0.0 0.0 0.00 0.00 0.00 98 1018.9
20260906064839 12 208 0.0 0.0 0.00 0.00 0.00 98 1018.9
20260906064346 12 208 0.0 0.0 0.00 0.00 0.00 98 1018.9
20260906063852 12 208 0.0 0.0 0.00 0.00 0.00 98 1019.0
20260906063335 12 208 0.0 0.0 0.00 0.00 0.00 98 1019.0
20260906062825 12 208 0.0 0.0 0.00 0.00 0.00 98 1018.9
20260906062332 12 208 0.0 0.0 0.00 0.00 0.00 98 1018.8
20260906061839 13 208 0.0 0.0 0.00 0.00 0.00 98 1018.8
20260906061345 13 208 0.0 0.0 0.00 0.00 0.00 97 1018.9
20260906060850 13 208 0.0 0.0 0.00 0.00 0.00 98 1018.9
20260906060335 13 208 0.0 0.0 0.00 0.03 0.00 98 1018.7
20260906055902 13 208 0.0 0.0 0.00 0.03 0.00 98 1018.6
20260906055347 13 208 0.0 0.0 0.00 0.03 0.00 98 1018.6
20260906054852 13 208 0.0 0.0 0.00 0.03 0.00 98 1018.6
20260906054336 13 208 0.0 0.0 0.00 0.03 0.00 98 1018.6
20260906053843 13 208 0.0 0.0 0.00 0.03 0.00 98 1018.6
20260906053330 13 208 0.0 0.0 0.00 0.03 0.00 98 1018.4
20260906052836 13 208 0.0 0.0 0.00 0.03 0.00 98 1018.4
20260906052324 13 208 0.0 0.0 0.00 0.03 0.00 97 1018.2
20260906051830 13 208 0.0 0.0 0.00 0.03 0.00 97 1018.1
20260906051337 13 208 0.0 0.0 0.00 0.03 0.00 97 1018.2
20260906050822 13 208 0.0 0.0 0.00 0.03 0.00 97 1018.1
20260906050328 13 208 0.0 0.0 0.00 0.03 0.00 98 1018.1
20260906045917 13 208 0.0 0.0 0.00 0.03 0.00 97 1018.1
20260906045338 13 208 0.0 0.0 0.00 0.03 0.00 97 1018.0
20260906044907 13 208 0.0 0.0 0.00 0.03 0.00 97 1018.0
20260906043844 13 208 0.0 0.0 0.00 0.03 0.00 97 1017.9
20260906042846 13 208 0.0 0.0 0.00 0.03 0.00 97 1017.8
20260906042413 13 208 0.0 0.0 0.00 0.03 0.00 97 1017.7
20260906041901 14 208 0.0 0.0 0.00 0.03 0.00 97 1017.6
20260906040843 13 208 0.0 0.0 0.00 0.03 0.00 97 1017.6
20260906040412 13 208 0.0 0.0 0.00 0.03 0.00 97 1017.7
20260906035830 14 208 0.0 0.0 0.00 0.03 0.00 97 1017.7
20260906035358 14 208 0.0 0.0 0.00 0.03 0.00 97 1017.7
20260906034821 14 208 0.0 0.0 0.00 0.03 0.00 97 1017.9
20260906034344 14 208 0.0 0.0 0.00 0.03 0.00 97 1017.9
20260906033913 14 208 0.0 0.0 0.00 0.03 0.00 97 1017.8
20260906033330 14 208 0.0 0.0 0.00 0.03 0.00 97 1017.7
20260906032852 15 208 0.0 0.0 0.00 0.03 0.00 97 1017.6
20260906032416 15 208 0.0 0.0 0.00 0.03 0.00 97 1017.6
20260906031941 15 206 0.0 0.0 0.00 0.03 0.00 97 1017.6
20260906031342 15 208 0.0 0.0 0.00 0.03 0.00 97 1017.7
20260906030913 15 208 0.0 0.0 0.00 0.03 0.00 97 1017.6
20260906030327 15 208 0.0 0.0 0.00 0.03 0.00 97 1017.6
20260906025844 15 208 0.0 0.0 0.00 0.03 0.00 97 1017.6
20260906025409 15 208 0.0 0.0 0.00 0.03 0.00 97 1017.6
20260906024827 15 208 0.0 0.0 0.00 0.03 0.00 97 1017.6
20260906024350 15 208 0.0 0.0 0.00 0.03 0.00 96 1017.5
20260906023342 15 208 0.0 0.0 0.00 0.03 0.00 96 1017.5
20260906022343 15 208 0.0 0.0 0.00 0.03 0.00 96 1017.4
20260906021343 15 208 0.0 0.0 0.00 0.03 0.00 96 1017.4
20260906020350 16 208 0.0 0.0 0.00 0.03 0.00 96 1017.3
20260906015911 16 208 0.0 0.0 0.00 0.03 0.00 95 1017.2
20260906015433 16 208 0.0 0.0 0.00 0.03 0.00 95 1017.1
20260906014829 16 206 0.0 0.0 0.00 0.03 0.00 95 1017.1
20260906014353 16 208 0.0 0.0 0.00 0.03 0.00 95 1017.1
20260906013914 17 208 0.0 0.0 0.00 0.03 0.00 95 1017.1
20260906013416 17 208 0.0 0.0 0.00 0.03 0.00 95 1017.0
20260906012837 17 206 0.0 0.0 0.00 0.03 0.00 95 1017.1
20260906012400 17 206 0.0 0.0 0.00 0.03 0.00 95 1017.1
20260906011902 17 206 0.0 0.0 0.00 0.03 0.00 94 1017.1
20260906011431 17 208 0.0 0.0 0.00 0.03 0.00 94 1017.1
20260906010934 17 206 0.0 0.0 0.00 0.03 0.00 93 1017.0
20260906010324 17 206 0.0 0.0 0.00 0.03 0.00 92 1017.0
20260906005854 18 206 0.0 0.0 0.00 0.03 0.00 92 1016.9
20260906005416 18 206 0.0 0.0 0.00 0.03 0.00 91 1016.8
20260906004940 18 206 0.0 0.0 0.00 0.03 0.00 90 1016.7
20260906004421 18 208 0.0 0.0 0.00 0.03 0.00 89 1016.8
20260906003842 19 208 0.0 0.0 0.00 0.03 0.00 89 1016.7
20260906003406 19 208 0.0 0.0 0.00 0.03 0.00 87 1016.7
20260906002825 20 208 0.0 1.6 0.00 0.03 0.00 86 1016.7
20260906002357 20 208 0.0 0.0 0.00 0.03 0.00 84 1016.7
20260906001907 21 208 0.0 0.0 0.00 0.03 0.00 83 1016.7
20260906000844 22 208 0.0 0.0 0.00 0.03 0.00 77 1016.7
20260906000403 23 208 0.0 0.0 0.00 0.03 0.00 76 1016.7
20260905235823 25 208 0.0 1.6 0.00 0.03 0.00 74 1016.7
20260905235349 25 208 0.0 1.6 0.00 0.03 0.00 72 1016.6
20260905234351 26 301 0.0 0.0 0.00 0.03 0.00 70 1016.5
20260905233853 26 302 0.0 0.0 0.00 0.03 0.00 71 1016.5
20260905233416 25 302 0.0 0.0 0.00 0.03 0.00 71 1016.5
20260905232919 25 301 0.0 0.0 0.00 0.03 0.00 71 1016.6
20260905232342 25 302 0.0 1.6 0.00 0.03 0.00 71 1016.5
20260905231911 25 302 0.0 1.6 0.00 0.03 0.00 70 1016.6
20260905231335 25 79 0.0 1.6 0.00 0.03 0.00 70 1016.7
20260905230905 25 78 0.0 1.6 0.00 0.03 0.00 70 1016.5
20260905230430 25 78 0.0 3.2 0.00 0.03 0.00 69 1016.5
20260905225828 26 213 0.0 0.0 0.00 0.03 0.00 68 1016.5
20260905225349 27 213 0.0 0.0 0.00 0.03 0.00 65 1016.5
20260905224914 27 213 0.0 0.0 0.00 0.03 0.00 66 1016.5
20260905224330 26 213 0.0 0.0 0.00 0.03 0.00 69 1016.6
20260905223859 26 213 0.0 0.0 0.00 0.03 0.00 67 1016.7
20260905223418 25 213 0.0 0.0 0.00 0.03 0.00 70 1016.7
20260905222841 24 213 0.0 0.0 0.00 0.03 0.00 75 1016.7
20260905222410 24 213 0.0 0.0 0.00 0.03 0.00 75 1016.7
20260905221832 25 212 0.0 0.0 0.00 0.03 0.00 73 1016.8
20260905221356 25 213 0.0 0.0 0.00 0.03 0.00 72 1016.8
20260905220916 25 213 0.0 0.0 0.00 0.03 0.00 71 1016.7
20260905220343 25 213 0.0 1.6 0.00 0.05 0.00 68 1016.7
20260905215911 25 213 0.0 1.6 0.00 0.05 0.00 69 1016.7
20260905215329 25 213 0.0 1.6 0.00 0.05 0.00 69 1016.7
20260905214853 25 146 0.0 1.6 0.00 0.05 0.00 65 1016.6
20260905214401 25 147 0.0 1.6 0.00 0.05 0.00 68 1016.6
20260905213329 24 215 0.0 0.0 0.00 0.05 0.00 75 1016.6
20260905212854 24 215 0.0 0.0 0.00 0.05 0.00 79 1016.6
20260905212401 24 335 0.0 0.0 0.00 0.05 0.00 76 1016.6
20260905211910 24 52 0.0 0.0 0.00 0.05 0.00 74 1016.5
20260905211327 24 52 0.0 1.6 0.00 0.05 0.00 73 1016.5
20260905210849 24 52 0.0 1.6 0.00 0.05 0.00 73 1016.6
20260905210417 24 52 0.0 0.0 0.00 0.05 0.00 70 1016.6
20260905205841 25 52 0.0 0.0 0.00 0.05 0.00 70 1016.7
20260905205351 25 52 0.0 1.6 0.00 0.05 0.00 68 1016.7